| time (UTC) | temp F | wind direction | speed MPH | gust MPH | rain 1hr in | rain 24hr in | rain mn in | humidity % | barometer mb |
| 20260507043055 | 61 | 149 | 0.0 | 0.0 | 0.00 | 0.00 | 0.00 | 3 | 1017.6 |
| 20260507041553 | 61 | 195 | 0.0 | 0.0 | 0.00 | 0.00 | 0.00 | 3 | 1017.5 |
| 20260507040029 | 61 | 188 | 0.0 | 5.0 | 0.00 | 0.00 | 0.00 | 3 | 1017.6 |
| 20260507034525 | 61 | 211 | 0.0 | 3.0 | 0.00 | 0.00 | 0.00 | 3 | 1017.6 |
| 20260507033005 | 61 | 211 | 0.0 | 9.0 | 0.00 | 0.00 | 0.00 | 3 | 1017.4 |
| 20260507031558 | 62 | 123 | 0.0 | 2.0 | 0.00 | 0.00 | 0.00 | 11 | 1017.4 |
| 20260507030037 | 62 | 219 | 0.0 | 3.0 | 0.00 | 0.00 | 0.00 | 30 | 1017.3 |
| 20260507024533 | 62 | 219 | 0.0 | 5.0 | 0.00 | 0.00 | 0.00 | 41 | 1017.3 |
| 20260507023011 | 63 | 266 | 0.0 | 7.0 | 0.00 | 0.00 | 0.00 | 52 | 1017.1 |
| 20260507021506 | 64 | 252 | 0.0 | 2.0 | 0.00 | 0.00 | 0.00 | 55 | 1017.1 |
| 20260507020106 | 65 | 150 | 0.0 | 7.0 | 0.00 | 0.00 | 0.00 | 58 | 1017.4 |
| 20260507014541 | 65 | 216 | 1.0 | 10.0 | 0.00 | 0.00 | 0.00 | 59 | 1017.4 |
| 20260507013039 | 66 | 240 | 0.0 | 7.0 | 0.00 | 0.00 | 0.00 | 60 | 1017.4 |
| 20260507011515 | 66 | 200 | 1.0 | 9.0 | 0.00 | 0.00 | 0.00 | 61 | 1017.4 |
| 20260507010059 | 66 | 165 | 1.0 | 9.0 | 0.00 | 0.00 | 0.00 | 62 | 1017.4 |
| 20260507004559 | 67 | 160 | 0.0 | 10.0 | 0.00 | 0.00 | 0.00 | 62 | 1017.4 |
| 20260507003035 | 67 | 214 | 2.0 | 11.0 | 0.00 | 0.00 | 0.00 | 62 | 1017.4 |
| 20260507001522 | 67 | 216 | 1.0 | 10.0 | 0.00 | 0.00 | 0.00 | 63 | 1017.4 |
| 20260506234556 | 69 | 199 | 1.0 | 10.0 | 0.00 | 0.00 | 0.00 | 62 | 1017.4 |
| 20260506233035 | 69 | 172 | 0.0 | 10.0 | 0.00 | 0.00 | 0.00 | 62 | 1017.5 |
| 20260506231529 | 70 | 252 | 0.0 | 6.0 | 0.00 | 0.00 | 0.00 | 61 | 1017.6 |
| 20260506230009 | 70 | 167 | 0.0 | 5.0 | 0.00 | 0.00 | 0.00 | 61 | 1017.7 |
| 20260506224503 | 70 | 208 | 1.0 | 7.0 | 0.00 | 0.00 | 0.00 | 62 | 1017.8 |
| 20260506223046 | 70 | 200 | 1.0 | 10.0 | 0.00 | 0.00 | 0.00 | 62 | 1018.0 |
| 20260506221538 | 71 | 193 | 1.0 | 9.0 | 0.00 | 0.00 | 0.00 | 61 | 1018.2 |
| 20260506220020 | 72 | 151 | 0.0 | 8.0 | 0.00 | 0.00 | 0.00 | 61 | 1018.2 |
| 20260506214529 | 72 | 238 | 0.0 | 3.0 | 0.00 | 0.00 | 0.00 | 61 | 1018.3 |
| 20260506213014 | 72 | 160 | 1.0 | 10.0 | 0.00 | 0.00 | 0.00 | 60 | 1018.5 |
| 20260506211506 | 73 | 214 | 0.0 | 3.0 | 0.00 | 0.00 | 0.00 | 60 | 1018.5 |
| 20260506210003 | 73 | 200 | 0.0 | 4.0 | 0.00 | 0.00 | 0.00 | 61 | 1018.5 |
| 20260506204558 | 73 | 170 | 0.0 | 3.0 | 0.00 | 0.00 | 0.00 | 60 | 1018.6 |
| 20260506203053 | 73 | 255 | 0.0 | 1.0 | 0.00 | 0.00 | 0.00 | 60 | 1018.8 |
| 20260506201548 | 72 | 210 | 0.0 | 4.0 | 0.00 | 0.00 | 0.00 | 60 | 1018.8 |
| 20260506200026 | 73 | 217 | 0.0 | 4.0 | 0.00 | 0.00 | 0.00 | 60 | 1019.0 |
| 20260506194522 | 72 | 187 | 0.0 | 0.0 | 0.00 | 0.00 | 0.00 | 60 | 1019.1 |
| 20260506193100 | 73 | 163 | 0.0 | 1.0 | 0.00 | 0.00 | 0.00 | 60 | 1019.2 |
| 20260506191555 | 74 | 230 | 0.0 | 1.0 | 0.00 | 0.00 | 0.00 | 59 | 1019.4 |
| 20260506190034 | 72 | 277 | 0.0 | 0.0 | 0.00 | 0.00 | 0.00 | 60 | 1019.4 |
| 20260506184542 | 70 | 173 | 0.0 | 0.0 | 0.00 | 0.00 | 0.00 | 60 | 1019.5 |
| 20260506183015 | 71 | 188 | 0.0 | 0.0 | 0.00 | 0.00 | 0.00 | 60 | 1019.6 |
| 20260506181507 | 71 | 204 | 0.0 | 0.0 | 0.00 | 0.00 | 0.00 | 59 | 1019.6 |
| 20260506180043 | 70 | 124 | 0.0 | 0.0 | 0.00 | 0.00 | 0.00 | 59 | 1019.6 |
| 20260506174541 | 70 | 231 | 0.0 | 0.0 | 0.00 | 0.00 | 0.00 | 59 | 1019.6 |
| 20260506173022 | 68 | 127 | 0.0 | 0.0 | 0.00 | 0.00 | 0.00 | 60 | 1019.6 |
| 20260506171517 | 69 | 230 | 0.0 | 0.0 | 0.00 | 0.00 | 0.00 | 59 | 1019.7 |
| 20260506170012 | 68 | 316 | 0.0 | 0.0 | 0.00 | 0.00 | 0.00 | 57 | 1019.8 |
| 20260506164509 | 67 | 269 | 0.0 | 0.0 | 0.00 | 0.00 | 0.00 | 57 | 1019.8 |
| 20260506163003 | 66 | 269 | 0.0 | 0.0 | 0.00 | 0.00 | 0.00 | 54 | 1019.8 |
| 20260506161559 | 66 | 221 | 0.0 | 1.0 | 0.00 | 0.00 | 0.00 | 36 | 1019.8 |
| 20260506154550 | 64 | 265 | 0.0 | 0.0 | 0.00 | 0.00 | 0.00 | 17 | 1019.9 |
| 20260506153028 | 65 | 186 | 0.0 | 0.0 | 0.00 | 0.00 | 0.00 | 3 | 1019.8 |
| 20260506151524 | 64 | 186 | 0.0 | 0.0 | 0.00 | 0.00 | 0.00 | 3 | 1019.8 |
| 20260506150002 | 62 | 186 | 0.0 | 0.0 | 0.00 | 0.00 | 0.00 | 3 | 1019.8 |
| 20260506144604 | 61 | 186 | 0.0 | 0.0 | 0.00 | 0.00 | 0.00 | 3 | 1019.7 |
| 20260506143037 | 60 | 186 | 0.0 | 0.0 | 0.00 | 0.00 | 0.00 | 3 | 1019.7 |
| 20260506141532 | 60 | 186 | 0.0 | 0.0 | 0.00 | 0.00 | 0.00 | 3 | 1019.6 |
| 20260506140015 | 0 | 0.0 | 0.0 | 0.00 | 0.00 | 0.00 | 1019.4 | ||
| 20260506134507 | 0 | 0.0 | 0.0 | 0.00 | 0.00 | 0.00 | 1019.3 | ||
| 20260506133102 | 0 | 0.0 | 0.0 | 0.00 | 0.00 | 0.00 | 1019.3 | ||
| 20260506131546 | 0 | 0.0 | 0.0 | 0.00 | 0.00 | 0.00 | 1019.2 | ||
| 20260506130036 | 0 | 0.0 | 0.0 | 0.00 | 0.00 | 0.00 | 1019.1 | ||
| 20260506124514 | 0 | 0.0 | 0.0 | 0.00 | 0.00 | 0.00 | 1019.0 | ||
| 20260506123010 | 0 | 0.0 | 0.0 | 0.00 | 0.00 | 0.00 | 1019.0 | ||
| 20260506121556 | 0 | 0.0 | 0.0 | 0.00 | 0.00 | 0.00 | 1018.9 | ||
| 20260506120050 | 0 | 0.0 | 0.0 | 0.00 | 0.00 | 0.00 | 1018.9 | ||
| 20260506114545 | 58 | 211 | 0.0 | 0.0 | 0.00 | 0.00 | 0.00 | 3 | 1018.8 |
| 20260506113043 | 60 | 226 | 0.0 | 0.0 | 0.00 | 0.00 | 0.00 | 3 | 1018.7 |
| 20260506111536 | 60 | 214 | 0.0 | 0.0 | 0.00 | 0.00 | 0.00 | 3 | 1018.6 |
| 20260506110033 | 60 | 221 | 0.0 | 0.0 | 0.00 | 0.00 | 0.00 | 3 | 1018.5 |
| 20260506104533 | 60 | 201 | 0.0 | 0.0 | 0.00 | 0.00 | 0.00 | 3 | 1018.4 |
| 20260506103026 | 60 | 217 | 0.0 | 0.0 | 0.00 | 0.00 | 0.00 | 3 | 1018.3 |
| 20260506101501 | 60 | 217 | 0.0 | 0.0 | 0.00 | 0.00 | 0.00 | 3 | 1018.2 |
| 20260506100057 | 60 | 219 | 0.0 | 0.0 | 0.00 | 0.00 | 0.00 | 3 | 1018.2 |
| 20260506094539 | 60 | 136 | 0.0 | 0.0 | 0.00 | 0.00 | 0.00 | 3 | 1018.1 |
| 20260506093032 | 61 | 158 | 0.0 | 0.0 | 0.00 | 0.00 | 0.00 | 3 | 1018.1 |
| 20260506091510 | 60 | 203 | 0.0 | 0.0 | 0.00 | 0.00 | 0.00 | 3 | 1018.2 |
| 20260506090006 | 60 | 203 | 0.0 | 0.0 | 0.00 | 0.00 | 0.00 | 3 | 1018.2 |
| 20260506084548 | 60 | 203 | 0.0 | 0.0 | 0.00 | 0.01 | 0.00 | 3 | 1018.2 |
| 20260506083040 | 60 | 222 | 0.0 | 0.0 | 0.00 | 0.01 | 0.00 | 3 | 1018.3 |
| 20260506081520 | 60 | 203 | 0.0 | 0.0 | 0.00 | 0.01 | 0.00 | 3 | 1018.2 |
| 20260506073047 | 61 | 203 | 0.0 | 0.0 | 0.00 | 0.02 | 0.00 | 3 | 1017.9 |
| 20260506071526 | 61 | 178 | 0.0 | 0.0 | 0.00 | 0.02 | 0.00 | 3 | 1017.8 |
| 20260506061532 | 61 | 127 | 0.0 | 0.0 | 0.00 | 0.16 | 0.02 | 3 | 1017.4 |
| 20260506044522 | 61 | 136 | 0.0 | 1.0 | 0.00 | 0.20 | 0.02 | 3 | 1016.7 |